Location: Echtenerbrug
(52.8703°N, 5.8232°E)
Time: 14:25:39
(UTC+00:00)

Daily predictions for brighter satellites

Satellite Brightness Start Highest point End
(mag) Time Altitude Azimuth Time Altitude Azimuth Time Altitude Azimuth
SL-16 R/B 2.8 18:33:45 10° SSE 18:38:43 33° ESE 18:43:43 10° NE
CSL-04 Rocket 4.5 18:34:16 10° S 18:39:29 56° WSW 18:44:42 10° NNW
Cosmos 2333 Rocket 3.3 18:35:14 10° SW 18:40:46 51° NW 18:46:19 10° NNE
SL-08 RB Rocket 4.2 18:37:15 10° SE 18:41:29 41° ENE 18:45:47 10° N
Resurs 01 Rocket 3.0 18:39:57 10° ESE 18:43:22 23° ENE 18:46:48 10° N
STARLINK-1144 3.7 18:39:23 10° W 18:43:31 77° SSW 18:47:41 10° ESE
STARLINK-1233 3.6 18:42:32 10° SW 18:45:26 35° SSE 18:48:21 10° E
STARLINK-1212 3.6 18:43:00 10° SW 18:45:54 35° SSE 18:48:48 10° E
Cosmos 1302 Rocket 4.1 18:40:40 10° NNW 18:45:57 71° ENE 18:51:14 10° SSE
STARLINK-1105 3.6 18:43:25 10° SW 18:46:20 35° SSE 18:49:16 10° E
STARLINK-1206 3.6 18:43:55 10° SW 18:46:49 35° SSE 18:49:43 10° E
STARLINK-1247 3.6 18:44:21 10° SW 18:47:14 36° SSE 18:50:09 10° E
FREGAT/IRIS 2.4 18:44:42 10° SSE 18:47:23 56° ENE 18:50:05 10° N
STARLINK-1227 3.6 18:44:46 10° SW 18:47:41 36° SSE 18:50:37 10° E
STARLINK-1243 4.4 18:44:07 10° SSW 18:47:45 32° SSE 18:51:25 10° E
STARLINK-1218 3.6 18:45:15 10° SW 18:48:08 36° SSE 18:51:03 10° E
STARLINK-1103 3.7 18:44:21 10° W 18:48:29 75° SSW 18:52:38 10° ESE
STARLINK-1226 3.6 18:45:42 10° SW 18:48:35 36° SSE 18:51:31 10° E
Cosmos 304 Rocket 4.3 18:43:54 10° NNW 18:48:39 63° WSW 18:53:22 10° S
COSMO-SKYMED 1 4.4 18:44:44 10° N 18:48:46 37° WNW 18:52:46 10° SW
STARLINK-1254 3.6 18:46:06 10° SW 18:49:02 37° SSE 18:51:58 10° E
Cosmos 1709 Rocket 4.0 18:42:48 10° N 18:49:02 67° ENE 18:55:10 10° SSE
STARLINK-1215 3.6 18:46:35 10° SW 18:49:30 37° SSE 18:52:25 10° E
SeaSat 1 3.0 18:45:01 10° NNE 18:49:56 67° NW 18:54:49 10° SW
STARLINK-1231 3.6 18:47:01 10° SW 18:49:56 37° SSE 18:52:51 10° E
STARLINK-1232 3.5 18:47:55 10° SW 18:50:50 37° SSE 18:53:46 10° E
STARLINK-1217 3.5 18:48:22 10° SW 18:51:17 37° SSE 18:54:13 10° E
Cosmos 2084 3.8 18:47:03 10° SW 18:51:31 73° NW 18:56:01 10° NE
STARLINK-1208 3.5 18:48:47 10° SW 18:51:43 38° SSE 18:54:40 10° E
Cosmos 1953 3.8 18:49:25 10° SE 18:52:01 17° E 18:54:39 10° NE
STARLINK-1229 3.5 18:49:15 10° SW 18:52:11 38° SSE 18:55:07 10° E
STARLINK-1236 4.3 18:48:49 10° SSW 18:52:30 34° SSE 18:56:12 10° E
STARLINK-1271 3.5 18:49:41 10° SW 18:52:37 38° SSE 18:55:34 10° E
STARLINK-1270 3.5 18:50:10 10° SW 18:53:05 38° SSE 18:56:02 10° E
STARLINK-1101 3.7 18:49:20 10° W 18:53:28 73° SSW 18:57:32 10° ESE
STARLINK-1154 3.5 18:50:36 10° SW 18:53:32 39° SSE 18:56:29 10° E
Cosmos 2360 Rocket 4.5 18:49:27 10° W 18:54:00 24° NW 18:58:34 10° NNE
STARLINK-1197 3.5 18:51:30 10° SW 18:54:26 39° SSE 18:57:23 10° E
STARLINK-1189 3.5 18:51:57 10° SW 18:54:54 39° SSE 18:57:50 10° E
Cosmos 1269 Rocket 4.2 18:50:27 10° S 18:55:33 52° ESE 19:00:43 10° NNE
STARLINK-1187 3.3 18:52:44 10° SW 18:55:43 43° SSE 18:58:44 10° E
STARLINK-1188 3.4 18:52:50 10° SW 18:55:47 40° SSE 18:58:44 10° E
STARLINK-1198 3.4 18:52:50 10° SW 18:55:48 40° SSE 18:58:45 10° E
MONITOR-E 3.7 18:53:16 10° SSE 18:55:54 68° ENE 18:58:33 10° N
STARLINK-1235 3.2 18:53:22 10° SW 18:56:24 47° SSE 18:59:27 10° E
CZ-4C R/B 3.6 18:51:18 10° W 18:56:36 40° NNW 19:02:56 10° NE
STARLINK-1199 3.4 18:54:45 10° SW 18:57:44 41° SSE 19:00:44 10° E
STARLINK-1191 3.4 18:55:12 10° SW 18:58:11 41° SSE 19:01:10 10° E
STARLINK-1102 3.8 18:54:18 10° W 18:58:25 70° SSW 19:02:19 11° ESE
STARLINK-1210 3.4 18:55:39 10° SW 18:58:38 41° SSE 19:01:36 10° E
STARLINK-1221 3.4 18:56:05 10° SW 18:59:05 42° SSE 19:02:02 10° E
STARLINK-1219 3.4 18:56:33 10° SW 18:59:32 42° SSE 19:02:29 10° E
ISS -3.6 18:56:23 10° W 18:59:43 63° S 19:02:41 13° ESE
STARLINK-1222 3.4 18:57:00 10° SW 18:59:59 42° SSE 19:02:54 11° E
Cosmos 2297 4.0 18:54:42 10° NW 19:00:23 74° WSW 19:06:03 10° SSE
STARLINK-1211 3.4 18:57:27 10° SW 19:00:26 42° SSE 19:03:20 11° E
STARLINK-1214 3.4 18:57:53 10° SW 19:00:52 42° SSE 19:03:46 11° E
STARLINK-1245 3.3 18:58:21 10° SW 19:01:20 42° SSE 19:04:10 11° E
STARLINK-1238 3.3 18:58:44 10° SW 19:01:45 43° SSE 19:04:37 11° E
STARLINK-1269 4.2 18:58:30 10° SW 19:02:17 38° SSE 19:06:05 10° E
BREEZE-M DEB (TANK) 4.3 18:53:22 10° W 19:02:22 63° S 19:05:20 13° ESE
STARLINK-1205 3.3 18:59:39 10° SW 19:02:39 43° SSE 19:05:27 11° E
Cosmos 2084 Rocket 3.6 18:58:19 10° NW 19:02:47 70° NE 19:06:58 12° ESE
STARLINK-1204 3.3 19:00:08 10° SW 19:03:07 43° SSE 19:05:54 12° E
Cosmos 1455 Rocket 3.0 18:59:02 10° S 19:03:23 81° E 19:07:46 10° NNE
STARLINK-1111 3.8 18:59:17 10° W 19:03:24 68° SSW 19:07:06 13° ESE
STARLINK-1200 4.1 19:03:15 10° SW 19:07:04 40° SSE 19:10:50 10° E
S3M 4.3 19:01:05 10° SSW 19:07:28 79° WNW 19:13:55 10° N
CZ-2C R/B 3.5 19:03:12 10° NE 19:07:29 25° E 19:11:43 10° SSE
Cosmos 2237 Rocket 2.5 19:02:24 10° SW 19:08:01 74° WNW 19:13:42 10° NNE
Cosmos 1626 Rocket 3.5 19:03:37 10° N 19:08:03 72° ENE 19:12:24 10° SSE
STARLINK-1073 3.8 19:04:16 10° W 19:08:24 65° SSW 19:11:53 14° ESE
NOSS 2-1 (C) 3.9 19:07:34 10° WSW 19:10:57 54° NW 19:14:54 10° NE
Cosmos 1805 4.2 19:07:47 10° SSW 19:11:37 52° WNW 19:15:28 10° N
STARLINK-1192 4.0 19:07:57 10° SW 19:11:48 42° SSE 19:15:24 12° E
STARLINK-1121 3.8 19:09:14 10° W 19:13:21 63° SSW 19:16:39 15° ESE
Cosmos 292 Rocket 4.0 19:09:31 10° NNW 19:14:15 55° ENE 19:18:32 12° SE
NOSS 2-1 (D) 4.0 19:11:48 10° WSW 19:15:10 50° NW 19:19:07 10° NE
Cosmos 1602 Rocket 3.6 19:11:34 10° N 19:16:03 69° ENE 19:20:28 10° SSE
STARLINK-1244 4.0 19:12:49 10° SW 19:16:42 44° SSE 19:20:08 13° E
ARGOS 3.3 19:11:53 10° SSE 19:17:18 80° WSW 19:22:44 10° NNW
STARLINK-1106 3.9 19:14:12 10° W 19:18:17 60° SSW 19:21:25 16° SE
STARLINK-1138 3.9 19:17:22 10° SW 19:21:17 46° SSE 19:24:34 14° E
MOS 1 Rocket 4.2 19:17:12 10° NNE 19:21:57 35° E 19:26:50 10° SSE
STARLINK-1234 2.7 19:19:09 10° WSW 19:22:05 62° SSE 19:24:04 19° E
STARLINK-1112 3.9 19:19:12 10° W 19:23:17 57° SSW 19:26:14 18° SE
Cosmos 494 Rocket 4.2 19:18:46 10° SSW 19:23:56 76° WNW 19:29:10 10° NNE
USA 186 2.8 19:21:11 10° S 19:24:32 49° W 19:27:49 10° NNW
STARLINK-1143 3.8 19:22:13 10° SW 19:26:10 49° SSE 19:29:16 16° E
IRIDIUM 114 4.4 19:21:25 10° N 19:26:37 60° E 19:31:46 10° SSE
COSMOS 2455 4.1 19:22:03 10° NW 19:27:16 29° NNE 19:32:01 12° E
MetOp-A 4.1 19:22:37 10° SSE 19:27:58 78° ENE 19:33:21 10° NNW
STARLINK-1128 4.0 19:24:11 10° W 19:28:14 55° SSW 19:31:01 19° SE
CZ-2C R/B 3.5 19:24:48 10° S 19:29:45 59° WSW 19:34:32 10° NNW
Cosmos 1437 3.5 19:27:36 10° N 19:30:23 32° ENE 19:31:25 25° ESE
Cosmos 1544 Rocket 3.8 19:26:36 10° SSW 19:31:00 73° WNW 19:35:27 10° N
Cosmos 1470 2.6 19:29:05 10° S 19:32:57 80° E 19:36:53 10° NNE
STARLINK-1113 4.1 19:29:10 10° W 19:33:12 52° SSW 19:35:47 20° SE
STARLINK-1241 3.7 19:30:31 10° SW 19:34:28 53° SSE 19:37:13 19° E
Cosmos 1825 Rocket 3.9 19:30:47 10° N 19:35:05 45° ENE 19:37:53 19° SE
IRIDIUM 103 4.3 19:30:34 10° N 19:35:49 71° E 19:41:02 10° SSE
SPOT 3 Rocket 3.6 19:31:11 10° SSE 19:36:25 85° WSW 19:41:41 10° NNW
NOSS 3-4 (A) 4.2 19:30:42 10° NW 19:37:14 53° NNE 19:42:42 18° E
NOSS 3-4 (C) 4.2 19:30:48 10° NW 19:37:20 53° NNE 19:42:48 18° E
STARLINK-1119 4.1 19:34:09 10° W 19:38:10 50° SSW 19:40:34 22° SE
Cosmos 2369 Rocket 2.2 19:33:04 10° NNW 19:38:50 80° ENE 19:43:14 17° SE
STARLINK-1239 3.7 19:35:24 10° SW 19:39:22 55° SSE 19:41:56 20° E
SJ-6B 3.9 19:38:42 10° S 19:42:39 48° W 19:46:41 10° NNW
STARLINK-1114 4.2 19:39:10 10° W 19:43:10 47° SSW 19:45:24 23° SE
Aureole 2 Rocket 2.3 19:40:28 10° NNW 19:44:01 85° ENE 19:45:56 25° SSE
STARLINK-1240 3.6 19:40:06 10° WSW 19:44:05 58° SSE 19:46:29 22° E
Cosmos 1726 2.6 19:42:57 23° SE 19:44:43 37° E 19:48:13 10° NNE
Cosmos 2263 4.2 19:39:14 10° NNW 19:44:52 69° NE 19:48:35 22° SE
Cosmos 1758 Rocket 3.5 19:40:32 10° N 19:44:54 64° ENE 19:47:53 19° SSE
Cosmos 1758 3.4 19:42:51 10° SSW 19:46:57 82° WNW 19:51:05 10° N
CZ-2C R/B 3.7 19:43:02 10° NNE 19:47:50 78° ESE 19:52:33 10° SSW
STARLINK-1130 (DARKSAT) 4.3 19:44:09 10° W 19:48:07 45° SSW 19:50:10 24° SSE
STARLINK-1216 3.6 19:44:49 10° WSW 19:48:49 61° SSE 19:51:02 25° E
Cosmos 1908 4.4 19:48:57 24° E 19:48:57 24° E 19:51:59 10° NE
ATLAS CENTAUR R/B 3.9 19:48:00 10° NW 19:50:49 17° N 19:53:32 10° NNE
Cosmos 1953 Rocket 3.9 19:47:04 10° N 19:51:22 46° ENE 19:53:21 28° SE
STARLINK-1209 2.6 19:49:04 10° WSW 19:52:00 82° S 19:52:50 43° E
STARLINK-1084 4.3 19:49:07 10° W 19:53:03 42° SSW 19:54:56 26° SSE
STARLINK-1237 3.5 19:49:34 10° WSW 19:53:35 63° SSE 19:55:38 27° E
Cosmos 2184 Rocket 4.0 19:47:32 10° N 19:53:56 79° ENE 19:59:37 13° SSE
IRIDIUM 106 4.4 19:48:51 10° N 19:54:07 85° W 19:59:21 10° S
STARLINK-1228 2.5 19:51:16 10° WSW 19:54:10 83° S 19:54:50 48° E
Terra 3.4 19:53:53 18° E 19:55:16 20° NE 19:58:43 10° N
STARLINK-1098 4.4 19:54:07 10° W 19:58:01 40° SSW 19:59:43 27° SSE
STARLINK-1202 3.5 19:54:17 10° WSW 19:58:19 66° SSE 20:00:11 30° E
Spot 2 Rocket 3.7 19:55:41 25° SE 19:58:32 56° ENE 20:03:32 10° N
Cosmos 1943 Rocket 2.5 19:54:44 10° NW 20:00:11 61° WSW 20:04:35 16° SSE
Meteor 1-21 Rocket 4.4 19:54:56 10° NNW 20:00:30 71° W 20:06:00 10° S
Cosmos 1606 Rocket 3.9 19:59:07 28° SE 20:00:58 44° E 20:05:12 10° NNE
ERBS 3.3 19:59:21 10° W 20:02:37 44° N 20:04:36 20° NE
SPOT 1/Viking Rocket 4.1 20:00:50 28° ESE 20:03:04 43° ENE 20:07:59 10° N
Cosmos 1943 3.7 20:01:04 15° SSE 20:05:11 36° ESE 20:10:20 10° NE
STARLINK-67 2.3 20:02:45 10° W 20:05:15 82° WNW 20:05:15 82° WNW
STARLINK-1246 3.5 20:01:27 10° WSW 20:05:31 70° SSE 20:07:11 34° E
SL-8 R/B 4.2 20:01:24 10° W 20:05:56 44° SSW 20:07:35 32° SE
Meteor 2-10 4.1 20:02:06 10° S 20:07:25 68° E 20:12:58 10° NNE
STARLINK-1201 2.8 20:04:49 10° WSW 20:08:06 82° S 20:08:41 56° E
Resurs 1-3 4.3 20:05:32 11° S 20:09:39 52° W 20:13:58 10° NNW
ATLAS 2AS CENTAUR R/B 3.0 20:02:21 10° NW 20:10:10 71° NE 20:14:21 28° ESE
STARLINK-1224 3.4 20:08:33 10° WSW 20:12:37 73° SSE 20:13:58 40° E
STARLINK-1203 3.4 20:09:55 10° WSW 20:13:54 76° SSE 20:15:07 43° E
Cosmos 1340 Rocket 4.3 20:15:29 23° ENE 20:15:29 23° ENE 20:17:46 10° NE
USA 234 3.2 20:08:22 10° ENE 20:14:52 63° SE 20:21:21 10° SW
Cosmos 2154 Rocket 4.0 20:08:38 10° N 20:15:02 75° ENE 20:18:59 25° SSE
H-2A R/B 4.2 20:12:23 10° SW 20:16:40 25° W 20:20:55 10° NW
STARLINK-1225 3.4 20:13:08 10° WSW 20:17:12 75° SSE 20:18:23 44° E
DMSP B5D2-2 4.1 20:12:05 10° NNE 20:17:20 85° WNW 20:22:34 10° SSW
USA 245 4.1 20:15:17 32° SSE 20:17:46 72° ENE 20:23:46 10° NNW
Aureole 3 4.2 20:14:42 10° SSW 20:18:55 63° WNW 20:24:21 10° N
Cosmos 1328 3.7 20:15:10 10° N 20:19:12 84° E 20:20:25 44° SSE
Resurs 01 Rocket 2.1 20:16:28 19° S 20:19:32 57° WSW 20:23:55 10° NNW
Cosmos 921 Rocket 3.8 20:17:02 10° N 20:20:53 33° ENE 20:21:20 32° ENE
STARLINK-1233 2.8 20:17:56 10° W 20:21:02 86° SW 20:21:02 86° SW
STARLINK-1212 2.8 20:18:24 10° W 20:21:27 84° WSW 20:21:27 84° WSW
STARLINK-1230 3.4 20:17:52 10° WSW 20:21:57 78° SSE 20:22:57 49° E
STARLINK-1105 2.8 20:18:50 10° W 20:21:53 84° WSW 20:21:53 84° WSW
STARLINK-1206 2.8 20:19:20 10° W 20:22:19 80° WSW 20:22:19 80° WSW
SL-16 R/B 2.9 20:17:03 10° SW 20:22:37 56° NW 20:28:13 10° NNE
STARLINK-1247 2.8 20:19:46 10° W 20:22:44 79° WSW 20:22:44 79° WSW
STARLINK-1227 2.8 20:20:11 10° W 20:23:12 80° WSW 20:23:12 80° WSW
STARLINK-1218 2.9 20:20:40 10° W 20:23:36 77° WSW 20:23:36 77° WSW
Cosmos 2228 2.9 20:22:39 40° SSE 20:24:03 67° E 20:28:22 10° NNE
STARLINK-1226 2.9 20:21:07 10° W 20:24:03 77° W 20:24:03 77° W
STARLINK-1254 2.9 20:21:32 10° W 20:24:30 77° W 20:24:30 77° W
STARLINK-1215 2.9 20:22:02 10° W 20:24:54 74° W 20:24:54 74° W
STARLINK-1231 2.9 20:22:28 10° W 20:25:19 73° W 20:25:19 73° W
STARLINK-1232 3.0 20:23:22 10° W 20:26:12 71° W 20:26:12 71° W
STARLINK-1243 3.4 20:22:42 10° WSW 20:26:47 80° SSE 20:27:35 55° E
STARLINK-1217 3.0 20:23:50 10° W 20:26:38 70° W 20:26:38 70° W
STARLINK-1208 3.0 20:24:14 10° W 20:27:05 71° W 20:27:05 71° W
STARLINK-1229 3.1 20:24:43 10° W 20:27:29 68° W 20:27:29 68° W
Cosmos 1953 3.0 20:24:08 10° SSW 20:28:01 54° WNW 20:31:57 10° N
STARLINK-1271 3.1 20:25:10 10° W 20:27:56 67° W 20:27:56 67° W
STARLINK-1270 3.1 20:25:38 10° W 20:28:23 66° W 20:28:23 66° W
STARLINK-1154 3.1 20:26:05 10° W 20:28:48 65° W 20:28:48 65° W
Iridium 4 Rocket 4.3 20:25:24 10° NNE 20:28:55 27° ENE 20:28:55 27° ENE
STARLINK-1197 3.2 20:26:59 10° W 20:29:41 63° W 20:29:41 63° W
STARLINK-1189 3.2 20:27:26 10° W 20:30:07 62° W 20:30:07 62° W
STARLINK-1187 3.2 20:28:16 10° W 20:30:59 63° W 20:30:59 63° W
STARLINK-1198 3.3 20:28:20 10° W 20:30:58 60° W 20:30:58 60° W
STARLINK-1188 3.3 20:28:20 10° W 20:30:59 60° W 20:30:59 60° W
STARLINK-1236 3.4 20:27:28 10° WSW 20:31:34 82° SSE 20:32:12 62° E
STARLINK-1235 3.2 20:28:59 10° W 20:31:43 64° W 20:31:43 64° W
STARLINK-1199 3.3 20:30:16 10° W 20:32:54 58° W 20:32:54 58° W
STARLINK-1191 3.4 20:30:43 10° W 20:33:19 57° W 20:33:19 57° W
STARLINK-1210 3.4 20:31:11 10° W 20:33:46 57° W 20:33:46 57° W
STARLINK-1221 3.4 20:31:38 10° W 20:34:12 56° W 20:34:12 56° W
Nadezhda 1 Rocket 3.9 20:29:48 16° S 20:35:02 79° E 20:41:27 10° NNE
SL-8 Rocket 4.3 20:29:04 10° N 20:35:10 49° ENE 20:37:01 38° ESE
STARLINK-1219 3.4 20:32:05 10° W 20:34:39 56° W 20:34:39 56° W
STARLINK-1222 3.5 20:32:32 10° W 20:35:04 54° W 20:35:04 54° W
STARLINK-1211 3.5 20:33:00 10° W 20:35:30 53° W 20:35:30 53° W
ISS -2.0 20:33:21 10° W 20:35:39 24° SW 20:35:39 24° SW
STARLINK-1214 3.5 20:33:26 10° W 20:35:56 53° W 20:35:56 53° W
STARLINK-1245 3.6 20:33:55 10° W 20:36:20 50° W 20:36:20 50° W
STARLINK-1238 3.6 20:34:18 10° W 20:36:46 52° W 20:36:46 52° W
STARLINK-1205 3.7 20:35:14 10° W 20:37:37 48° W 20:37:37 48° W
STARLINK-1204 3.7 20:35:42 10° W 20:38:04 47° W 20:38:04 47° W
STARLINK-1269 3.4 20:37:22 10° WSW 20:41:28 85° SSE 20:41:43 78° ESE
Cosmos 2058 Rocket 3.1 20:42:37 60° ESE 20:42:44 60° E 20:47:12 10° NNE
Cosmos 1703 3.9 20:38:53 10° NNW 20:42:45 53° W 20:43:49 39° SSW
Cosmos 2366 rocket 4.4 20:37:03 10° N 20:42:57 45° ENE 20:44:17 39° ESE
MetOp-B 4.4 20:40:10 28° S 20:43:01 63° WSW 20:48:23 10° NNW
Cosmos 1603 3.5 20:38:38 10° SSW 20:44:16 79° ESE 20:49:55 10° NNE
Cosmos 614 Rocket 4.4 20:44:49 43° E 20:44:49 43° E 20:49:15 10° NE
SPOT 5 2.7 20:44:26 55° E 20:44:41 56° ENE 20:48:57 10° N
Cosmos 2251 Rocket 3.7 20:39:50 10° SSW 20:45:13 75° WNW 20:50:38 10° NNE
Meteor 1-16 Rocket 4.2 20:40:19 10° SSW 20:45:37 74° WNW 20:51:09 10° N
STARLINK-1200 3.4 20:42:12 10° W 20:46:18 87° SSE 20:46:21 86° SE
CZ-4C R/B 4.0 20:41:07 10° WNW 20:46:43 34° N 20:53:16 10° ENE
CZ-2C R/B 3.1 20:43:03 10° N 20:48:10 58° WNW 20:53:14 10° SSW
IGS 5A 3.4 20:49:02 67° SSW 20:49:32 79° WSW 20:53:43 10° NNW
ERS-1 Rocket 2.9 20:48:38 56° SE 20:49:39 76° ENE 20:54:42 10° NNW
Cosmos 1980 Rocket 4.4 20:46:41 10° NNW 20:50:08 16° NNE 20:53:35 10° ENE
Landsat 7 3.8 20:49:39 50° S 20:50:52 77° WSW 20:55:40 10° NNW
STARLINK-1192 3.5 20:46:57 10° W 20:50:55 84° WSW 20:50:55 84° WSW
STARLINK-1244 3.6 20:51:53 10° W 20:55:40 76° W 20:55:40 76° W
Cosmos 1892 4.3 20:54:37 10° N 20:56:56 25° NE 20:56:56 25° NE
Cosmos 1656 Rocket 4.1 20:54:47 10° NW 21:00:21 57° WSW 21:02:03 41° SSW
STARLINK-1138 3.7 20:56:26 10° W 21:00:03 69° W 21:00:03 69° W
Cosmos 1076 Rocket 4.3 20:57:02 10° N 21:00:23 39° NE 21:00:23 39° NE
STARLINK-1143 3.9 21:01:20 10° W 21:04:46 61° W 21:04:46 61° W
Aureole 1 Rocket 4.2 21:01:50 28° S 21:06:07 66° ESE 21:12:25 10° NNE
CARTOSAT-1 3.5 21:07:29 85° NW 21:07:29 85° NW 21:11:45 10° NNW
Cosmos 1726 Rocket 4.3 21:10:43 35° SW 21:12:11 51° WNW 21:16:32 10° N
STARLINK-1241 4.3 21:09:33 10° W 21:12:34 49° W 21:12:34 49° W
COSMOS 2455 2.8 21:08:03 10° NW 21:14:08 78° NE 21:15:09 61° ESE
STARLINK-1239 4.5 21:14:33 10° W 21:17:22 43° W 21:17:22 43° W
In-Cosmos 22 Rocket 4.2 21:13:44 10° N 21:19:34 74° ENE 21:20:10 68° ESE
Cosmos 2341 Rocket 4.2 21:14:18 10° NNW 21:20:38 70° W 21:22:43 44° SSW
Cosmos 1461 3.2 21:16:54 10° NW 21:20:56 72° NW 21:20:56 72° NW
ASTEX 1 4.4 21:22:57 34° NE 21:22:57 34° NE 21:26:45 10° N
Cosmos 2369 Rocket 4.1 21:17:59 10° NW 21:22:15 22° WSW 21:25:03 15° SW
Cosmos 1300 4.3 21:28:55 31° N 21:28:55 31° N 21:31:01 10° N
Cosmos 1763 Rocket 4.1 21:22:27 10° NNW 21:27:28 42° NE 21:27:28 42° NE
Cosmos 1656 4.4 21:22:41 10° NNW 21:28:06 41° NE 21:28:47 39° ENE
NOSS 3-4 (A) 4.0 21:21:40 10° NW 21:28:27 62° SW 21:30:09 50° S
NOSS 3-4 (C) 4.0 21:21:46 10° NW 21:28:33 63° SW 21:30:14 50° S
Cosmos 1825 4.4 21:26:52 10° N 21:28:25 19° NNE 21:28:25 19° NNE
Cosmos 1190 Rocket 4.2 21:31:48 61° NE 21:31:48 61° NE 21:36:16 10° NNE
ATLAS CENTAUR R/B 3.5 21:28:09 10° NNW 21:31:08 19° NNE 21:31:52 18° NNE
Terra 1.9 21:32:46 74° WNW 21:32:46 74° WNW 21:37:19 10° NNW
Meteor 2-12 Rocket 4.3 21:29:56 10° N 21:36:06 78° ENE 21:36:34 74° SE
Cosmos 1818 4.0 21:39:12 51° NE 21:39:12 51° NE 21:43:15 10° NE
NOSS 3-3 (A) 4.2 21:34:11 10° SW 21:40:14 73° NW 21:47:12 10° NE
NOSS 3-3 (C) 4.1 21:34:17 10° SW 21:40:20 74° NW 21:47:18 10° NE
Cosmos 2218 Rocket 4.0 21:41:36 10° NNW 21:47:43 69° W 21:48:36 61° SW
Cosmos 1943 3.9 21:43:34 10° SW 21:49:05 52° NW 21:54:42 10° NNE
Cosmos 1340 Rocket 4.3 21:51:02 36° WNW 21:51:02 36° WNW 21:54:29 10° N
Cosmos 1140 Rocket 3.8 21:56:03 60° NNE 21:56:03 60° NNE 22:00:18 10° NNE
Cosmos 841 Rocket 4.3 21:52:11 10° NNW 21:56:50 42° NE 21:56:50 42° NE
USA 234 3.4 21:51:31 10° ENE 21:58:02 73° NNW 22:04:33 10° W
Cosmos 540 Rocket 4.4 21:55:33 10° NNW 21:59:57 40° NE 21:59:57 40° NE
ATLAS 2AS CENTAUR R/B 3.4 21:53:50 10° NW 22:00:50 41° WSW 22:01:48 40° SW
Cosmos 2181 Rocket 4.2 22:00:17 55° SW 22:01:30 66° WNW 22:07:42 10° N
Cosmos 468 Rocket 4.3 21:57:03 10° NNW 22:01:30 64° NNW 22:01:30 64° NNW
Cosmos 2344 4.5 21:54:17 10° NW 22:02:48 59° NNE 22:09:43 26° E
Cosmos 2058 4.4 21:58:55 10° NNW 22:01:32 34° NW 22:01:32 34° NW
Cosmos 407 Rocket 4.0 22:06:47 55° WNW 22:06:55 55° WNW 22:11:59 10° NNE
Iridium 4 Rocket 4.5 22:05:15 10° NNW 22:08:42 35° WNW 22:08:42 35° WNW
Cosmos 1697 Rocket 3.3 22:04:48 10° NNW 22:10:12 47° NE 22:10:12 47° NE
SL-16 R/B 4.4 22:08:27 10° NNW 22:12:24 19° NNE 22:15:22 13° ENE
Mayak 0.5 22:13:27 10° NNE 22:15:32 29° N 22:15:32 29° N
ALOS 2 4.2 22:23:54 31° NNE 22:23:54 31° NNE 22:26:26 10° N
Cosmos 2322 Rocket 4.4 22:22:45 10° NNW 22:26:46 19° NNE 22:29:38 14° ENE
Cosmos 1980 Rocket 3.0 22:30:21 10° NNW 22:35:28 42° NE 22:35:28 42° NE
CZ-4C R/B 3.3 22:30:05 10° NW 22:36:37 54° NNE 22:38:44 42° E
Nadezhda 3 Rocket 4.0 22:38:52 76° NNE 22:38:52 76° NNE 22:44:40 10° N
Cosmos 2278 4.3 22:40:54 10° NNW 22:45:46 53° NNE 22:45:46 53° NNE
COSMOS 2406 4.4 22:56:09 33° NE 22:56:09 33° NE 22:59:22 10° NE
Meteor 2-10 Rocket 4.4 22:58:27 47° NNW 22:58:27 47° NNW 23:02:22 10° N
Cosmos 2082 Rocket 4.2 23:00:52 18° ENE 23:00:52 18° ENE 23:02:47 10° NE
COSMOS 2455 4.4 22:54:37 10° NW 22:58:18 25° W 22:58:18 25° W
ATLAS CENTAUR R/B 4.0 23:06:59 10° NW 23:08:02 17° NNW 23:08:02 17° NNW
Terra 4.4 23:11:38 12° WNW 23:11:38 12° WNW 23:13:02 10° WNW
Meteor 2-3 Rocket 4.4 23:09:39 10° NNW 23:14:10 51° NW 23:14:10 51° NW
ATLAS 5 CENTAUR R/B 3.6 23:20:05 27° NNE 23:20:05 27° NNE 23:22:34 10° NE
Cosmos 1833 Rocket 3.9 23:28:31 35° NE 23:28:31 35° NE 23:31:52 10° NE
Cosmos 1605 Rocket 4.3 23:25:01 10° NNW 23:30:02 59° NW 23:30:02 59° NW
Cosmos 2173 Rocket 4.4 23:29:50 10° N 23:35:07 53° NE 23:35:07 53° NE
USA 234 3.5 23:34:21 10° E 23:40:48 64° N 23:47:16 10° WNW
Cosmos 2061 Rocket 4.5 23:46:11 10° N 23:51:53 53° ENE 23:51:53 53° ENE
Mayak 1.5 23:50:35 10° NNW 23:52:06 13° NW 23:52:06 13° NW
SL-16 R/B 3.7 23:52:44 32° E 23:54:01 35° ENE 23:59:35 10° N
Cosmos 1697 Rocket 4.2 23:48:58 10° NW 23:51:56 28° WNW 23:51:56 28° WNW
